| time (UTC) | temp F | wind direction | speed MPH | gust MPH | rain 1hr in | rain 24hr in | rain mn in | humidity % | barometer mb |
| 20260507192309 | 48 | 340 | 2.0 | 3.0 | 0.00 | 0.12 | 0.12 | 81 | 1015.0 |
| 20260507191802 | 47 | 351 | 2.0 | 2.0 | 0.00 | 0.12 | 0.12 | 82 | 1014.8 |
| 20260507191254 | 47 | 326 | 2.0 | 3.0 | 0.00 | 0.12 | 0.12 | 82 | 1014.4 |
| 20260507190746 | 47 | 342 | 2.0 | 2.0 | 0.00 | 0.12 | 0.12 | 82 | 1014.4 |
| 20260507190239 | 47 | 348 | 1.0 | 3.0 | 0.00 | 0.12 | 0.12 | 82 | 1014.6 |
| 20260507185731 | 47 | 352 | 0.0 | 2.0 | 0.00 | 0.12 | 0.12 | 84 | 1014.8 |
| 20260507185224 | 48 | 332 | 1.0 | 2.0 | 0.00 | 0.12 | 0.12 | 82 | 1014.8 |
| 20260507184716 | 48 | 310 | 1.0 | 2.0 | 0.00 | 0.12 | 0.12 | 82 | 1014.5 |
| 20260507184209 | 48 | 351 | 1.0 | 2.0 | 0.00 | 0.12 | 0.12 | 81 | 1014.3 |
| 20260507183701 | 48 | 37 | 0.0 | 1.0 | 0.00 | 0.12 | 0.12 | 80 | 1014.6 |
| 20260507183153 | 48 | 323 | 0.0 | 2.0 | 0.00 | 0.12 | 0.12 | 81 | 1014.3 |
| 20260507182645 | 49 | 342 | 2.0 | 3.0 | 0.00 | 0.12 | 0.12 | 80 | 1014.9 |
| 20260507182137 | 48 | 324 | 1.0 | 2.0 | 0.00 | 0.12 | 0.12 | 81 | 1014.4 |
| 20260507181629 | 48 | 49 | 0.0 | 0.0 | 0.00 | 0.12 | 0.12 | 81 | 1014.3 |
| 20260507181122 | 49 | 75 | 1.0 | 2.0 | 0.00 | 0.12 | 0.12 | 80 | 1014.5 |
| 20260507180614 | 49 | 96 | 3.0 | 3.0 | 0.00 | 0.12 | 0.12 | 81 | 1014.4 |
| 20260507175600 | 50 | 22 | 0.0 | 2.0 | 0.00 | 0.12 | 0.12 | 79 | 1014.0 |
| 20260507175052 | 50 | 316 | 0.0 | 2.0 | 0.00 | 0.12 | 0.12 | 79 | 1014.5 |
| 20260507174544 | 50 | 7 | 1.0 | 3.0 | 0.00 | 0.12 | 0.12 | 79 | 1013.9 |
| 20260507174036 | 50 | 135 | 0.0 | 3.0 | 0.00 | 0.12 | 0.12 | 80 | 1014.4 |
| 20260507173528 | 50 | 25 | 2.0 | 4.0 | 0.00 | 0.12 | 0.12 | 79 | 1014.4 |
| 20260507173021 | 50 | 291 | 2.0 | 3.0 | 0.00 | 0.12 | 0.12 | 80 | 1014.5 |
| 20260507172513 | 50 | 56 | 1.0 | 4.0 | 0.00 | 0.12 | 0.12 | 79 | 1014.5 |
| 20260507172006 | 50 | 116 | 0.0 | 2.0 | 0.00 | 0.12 | 0.12 | 80 | 1014.2 |
| 20260507171458 | 50 | 275 | 2.0 | 4.0 | 0.00 | 0.12 | 0.12 | 79 | 1014.5 |
| 20260507170950 | 51 | 288 | 2.0 | 5.0 | 0.00 | 0.12 | 0.12 | 79 | 1014.7 |
| 20260507170443 | 51 | 104 | 2.0 | 4.0 | 0.00 | 0.12 | 0.12 | 79 | 1014.5 |
| 20260507165935 | 51 | 51 | 3.0 | 4.0 | 0.00 | 0.12 | 0.12 | 79 | 1014.5 |
| 20260507164920 | 51 | 59 | 2.0 | 7.0 | 0.00 | 0.12 | 0.12 | 78 | 1014.5 |
| 20260507164413 | 52 | 70 | 2.0 | 4.0 | 0.00 | 0.12 | 0.12 | 78 | 1014.3 |
| 20260507163906 | 52 | 22 | 0.0 | 2.0 | 0.00 | 0.12 | 0.12 | 78 | 1014.4 |
| 20260507163358 | 52 | 262 | 2.0 | 3.0 | 0.00 | 0.12 | 0.12 | 77 | 1014.7 |
| 20260507162850 | 53 | 129 | 0.0 | 2.0 | 0.00 | 0.12 | 0.12 | 76 | 1014.8 |
| 20260507162342 | 53 | 306 | 0.0 | 6.0 | 0.00 | 0.12 | 0.12 | 76 | 1014.5 |
| 20260507161834 | 53 | 244 | 2.0 | 5.0 | 0.00 | 0.12 | 0.12 | 75 | 1014.9 |
| 20260507161327 | 53 | 253 | 2.0 | 3.0 | 0.00 | 0.12 | 0.12 | 74 | 1014.4 |
| 20260507160819 | 54 | 300 | 2.0 | 4.0 | 0.00 | 0.12 | 0.12 | 76 | 1014.3 |
| 20260507160311 | 54 | 274 | 2.0 | 2.0 | 0.00 | 0.12 | 0.12 | 76 | 1014.7 |
| 20260507155804 | 53 | 322 | 3.0 | 4.0 | 0.00 | 0.12 | 0.12 | 76 | 1014.4 |
| 20260507155256 | 53 | 296 | 2.0 | 5.0 | 0.00 | 0.12 | 0.12 | 75 | 1014.6 |
| 20260507154748 | 53 | 296 | 1.0 | 4.0 | 0.00 | 0.12 | 0.12 | 76 | 1014.3 |
| 20260507154241 | 53 | 256 | 2.0 | 3.0 | 0.00 | 0.12 | 0.12 | 76 | 1014.5 |
| 20260507153733 | 54 | 277 | 0.0 | 4.0 | 0.00 | 0.12 | 0.12 | 76 | 1014.2 |
| 20260507153225 | 54 | 329 | 2.0 | 3.0 | 0.00 | 0.12 | 0.12 | 74 | 1014.6 |
| 20260507152717 | 54 | 284 | 0.0 | 4.0 | 0.00 | 0.12 | 0.12 | 74 | 1014.3 |
| 20260507152210 | 54 | 224 | 2.0 | 3.0 | 0.00 | 0.12 | 0.12 | 74 | 1014.4 |
| 20260507151702 | 53 | 262 | 1.0 | 4.0 | 0.00 | 0.12 | 0.12 | 74 | 1014.2 |
| 20260507151154 | 53 | 236 | 2.0 | 5.0 | 0.00 | 0.12 | 0.12 | 74 | 1014.5 |
| 20260507150647 | 53 | 180 | 1.0 | 2.0 | 0.00 | 0.12 | 0.12 | 79 | 1014.5 |
| 20260507150139 | 52 | 42 | 2.0 | 5.0 | 0.00 | 0.12 | 0.12 | 81 | 1014.6 |
| 20260507145632 | 52 | 204 | 0.0 | 6.0 | 0.00 | 0.12 | 0.12 | 82 | 1014.5 |
| 20260507144617 | 52 | 222 | 1.0 | 5.0 | 0.00 | 0.12 | 0.12 | 81 | 1014.5 |
| 20260507144110 | 53 | 235 | 2.0 | 7.0 | 0.00 | 0.12 | 0.12 | 79 | 1014.5 |
| 20260507143602 | 53 | 264 | 2.0 | 5.0 | 0.00 | 0.12 | 0.12 | 78 | 1014.7 |
| 20260507143055 | 53 | 347 | 2.0 | 2.0 | 0.00 | 0.12 | 0.12 | 80 | 1014.6 |
| 20260507142547 | 53 | 355 | 3.0 | 6.0 | 0.00 | 0.12 | 0.12 | 77 | 1014.5 |
| 20260507142039 | 53 | 50 | 2.0 | 4.0 | 0.00 | 0.12 | 0.12 | 82 | 1014.8 |
| 20260507141531 | 53 | 17 | 3.0 | 5.0 | 0.00 | 0.12 | 0.12 | 80 | 1014.4 |
| 20260507141023 | 53 | 290 | 5.0 | 6.0 | 0.00 | 0.12 | 0.12 | 76 | 1014.7 |
| 20260507140516 | 53 | 277 | 2.0 | 4.0 | 0.00 | 0.12 | 0.12 | 76 | 1014.6 |
| 20260507140008 | 53 | 98 | 0.0 | 2.0 | 0.00 | 0.12 | 0.12 | 79 | 1014.8 |
| 20260507135502 | 53 | 290 | 1.0 | 5.0 | 0.00 | 0.12 | 0.12 | 77 | 1014.3 |
| 20260507134953 | 54 | 341 | 3.0 | 4.0 | 0.00 | 0.12 | 0.12 | 78 | 1014.6 |
| 20260507134446 | 55 | 69 | 2.0 | 5.0 | 0.00 | 0.12 | 0.12 | 76 | 1014.4 |
| 20260507133938 | 56 | 7 | 6.0 | 9.0 | 0.00 | 0.12 | 0.12 | 75 | 1014.6 |
| 20260507133431 | 55 | 261 | 3.0 | 5.0 | 0.00 | 0.12 | 0.12 | 76 | 1014.5 |
| 20260507132923 | 54 | 200 | 3.0 | 4.0 | 0.01 | 0.12 | 0.12 | 78 | 1014.8 |
| 20260507132415 | 53 | 276 | 1.0 | 3.0 | 0.01 | 0.12 | 0.12 | 82 | 1014.9 |
| 20260507131908 | 53 | 311 | 0.0 | 3.0 | 0.02 | 0.11 | 0.11 | 80 | 1014.7 |
| 20260507131401 | 54 | 24 | 1.0 | 2.0 | 0.02 | 0.11 | 0.11 | 79 | 1014.9 |
| 20260507130853 | 54 | 327 | 1.0 | 6.0 | 0.02 | 0.11 | 0.11 | 80 | 1014.6 |
| 20260507130345 | 54 | 17 | 2.0 | 3.0 | 0.02 | 0.11 | 0.11 | 71 | 1014.6 |
| 20260507125838 | 55 | 123 | 5.0 | 5.0 | 0.02 | 0.11 | 0.11 | 71 | 1014.6 |
| 20260507125330 | 54 | 254 | 1.0 | 2.0 | 0.02 | 0.11 | 0.11 | 81 | 1014.7 |
| 20260507124823 | 51 | 316 | 0.0 | 2.0 | 0.02 | 0.11 | 0.11 | 78 | 1014.7 |
| 20260507124315 | 51 | 35 | 0.0 | 2.0 | 0.02 | 0.11 | 0.11 | 81 | 1014.8 |
| 20260507123808 | 51 | 16 | 0.0 | 2.0 | 0.02 | 0.11 | 0.11 | 76 | 1014.8 |
| 20260507123301 | 51 | 16 | 1.0 | 2.0 | 0.02 | 0.11 | 0.11 | 82 | 1014.8 |
| 20260507122753 | 51 | 280 | 0.0 | 2.0 | 0.02 | 0.11 | 0.11 | 80 | 1015.1 |
| 20260507122245 | 51 | 335 | 0.0 | 2.0 | 0.01 | 0.11 | 0.11 | 84 | 1014.7 |
| 20260507121737 | 53 | 12 | 0.0 | 1.0 | 0.00 | 0.10 | 0.10 | 77 | 1014.8 |
| 20260507121229 | 53 | 208 | 1.0 | 2.0 | 0.00 | 0.10 | 0.10 | 75 | 1015.1 |
| 20260507120721 | 53 | 88 | 1.0 | 2.0 | 0.00 | 0.10 | 0.10 | 84 | 1014.7 |
| 20260507115706 | 53 | 23 | 0.0 | 2.0 | 0.00 | 0.10 | 0.10 | 82 | 1014.6 |
| 20260507115159 | 53 | 84 | 4.0 | 5.0 | 0.00 | 0.10 | 0.10 | 74 | 1014.9 |
| 20260507114651 | 54 | 82 | 4.0 | 5.0 | 0.00 | 0.10 | 0.10 | 73 | 1014.8 |
| 20260507114144 | 55 | 96 | 3.0 | 3.0 | 0.00 | 0.10 | 0.10 | 75 | 1014.8 |
| 20260507113636 | 53 | 114 | 1.0 | 2.0 | 0.00 | 0.10 | 0.10 | 78 | 1015.0 |
| 20260507113129 | 52 | 178 | 1.0 | 2.0 | 0.00 | 0.09 | 0.09 | 75 | 1014.9 |
| 20260507112621 | 52 | 27 | 0.0 | 2.0 | 0.00 | 0.09 | 0.09 | 79 | 1015.1 |
| 20260507112114 | 51 | 131 | 1.0 | 3.0 | 0.00 | 0.09 | 0.09 | 77 | 1015.0 |
| 20260507111606 | 51 | 85 | 3.0 | 4.0 | 0.00 | 0.09 | 0.09 | 80 | 1014.9 |
| 20260507111059 | 51 | 88 | 5.0 | 8.0 | 0.01 | 0.09 | 0.09 | 81 | 1015.0 |
| 20260507110551 | 51 | 93 | 3.0 | 4.0 | 0.01 | 0.09 | 0.09 | 81 | 1014.6 |
| 20260507110044 | 51 | 87 | 2.0 | 2.0 | 0.03 | 0.09 | 0.09 | 83 | 1014.8 |
| 20260507105536 | 50 | 145 | 2.0 | 3.0 | 0.06 | 0.09 | 0.09 | 88 | 1015.0 |
| 20260507105029 | 50 | 157 | 0.0 | 3.0 | 0.09 | 0.09 | 0.09 | 86 | 1015.1 |
| 20260507104521 | 50 | 215 | 2.0 | 3.0 | 0.09 | 0.09 | 0.09 | 83 | 1014.7 |
| 20260507104015 | 50 | 187 | 2.0 | 2.0 | 0.09 | 0.09 | 0.09 | 88 | 1014.7 |
| 20260507103506 | 49 | 168 | 2.0 | 2.0 | 0.09 | 0.09 | 0.09 | 88 | 1014.8 |
| 20260507102958 | 48 | 173 | 0.0 | 2.0 | 0.09 | 0.09 | 0.09 | 85 | 1015.1 |
| 20260507102451 | 48 | 115 | 0.0 | 1.0 | 0.09 | 0.09 | 0.09 | 88 | 1014.9 |
| 20260507101943 | 48 | 106 | 2.0 | 3.0 | 0.09 | 0.09 | 0.09 | 87 | 1015.1 |
| 20260507101436 | 49 | 194 | 3.0 | 3.0 | 0.09 | 0.09 | 0.09 | 89 | 1015.1 |
| 20260507100928 | 49 | 122 | 1.0 | 2.0 | 0.09 | 0.09 | 0.09 | 89 | 1014.8 |
| 20260507100420 | 48 | 159 | 2.0 | 4.0 | 0.08 | 0.08 | 0.08 | 86 | 1015.0 |
| 20260507095913 | 49 | 304 | 0.0 | 4.0 | 0.07 | 0.07 | 0.07 | 87 | 1015.7 |
| 20260507095405 | 50 | 182 | 2.0 | 5.0 | 0.03 | 0.03 | 0.03 | 83 | 1015.2 |
| 20260507094857 | 50 | 55 | 0.0 | 6.0 | 0.00 | 0.00 | 0.00 | 82 | 1014.6 |
| 20260507094350 | 50 | 137 | 3.0 | 5.0 | 0.00 | 0.00 | 0.00 | 82 | 1014.8 |
| 20260507093842 | 51 | 145 | 5.0 | 5.0 | 0.00 | 0.00 | 0.00 | 82 | 1014.9 |
| 20260507093335 | 51 | 118 | 2.0 | 7.0 | 0.00 | 0.00 | 0.00 | 82 | 1014.8 |
| 20260507092828 | 51 | 157 | 3.0 | 5.0 | 0.00 | 0.00 | 0.00 | 77 | 1014.8 |
| 20260507092321 | 52 | 158 | 3.0 | 7.0 | 0.00 | 0.00 | 0.00 | 77 | 1015.0 |
| 20260507091813 | 51 | 124 | 5.0 | 6.0 | 0.00 | 0.00 | 0.00 | 79 | 1014.8 |
| 20260507091306 | 51 | 126 | 5.0 | 5.0 | 0.00 | 0.00 | 0.00 | 77 | 1014.6 |
| 20260507090759 | 50 | 162 | 2.0 | 4.0 | 0.00 | 0.00 | 0.00 | 79 | 1014.5 |
| 20260507090251 | 51 | 137 | 6.0 | 7.0 | 0.00 | 0.00 | 0.00 | 79 | 1014.9 |
| 20260507085743 | 51 | 181 | 0.0 | 8.0 | 0.00 | 0.00 | 0.00 | 79 | 1014.2 |
| 20260507085235 | 51 | 127 | 2.0 | 9.0 | 0.00 | 0.00 | 0.00 | 81 | 1014.7 |
| 20260507084728 | 51 | 126 | 3.0 | 5.0 | 0.00 | 0.00 | 0.00 | 80 | 1014.9 |
| 20260507084221 | 51 | 158 | 5.0 | 5.0 | 0.00 | 0.00 | 0.00 | 82 | 1014.8 |
| 20260507083713 | 50 | 157 | 3.0 | 5.0 | 0.00 | 0.00 | 0.00 | 81 | 1014.5 |
| 20260507083206 | 50 | 140 | 2.0 | 5.0 | 0.00 | 0.00 | 0.00 | 80 | 1014.4 |
| 20260507082658 | 50 | 172 | 3.0 | 5.0 | 0.00 | 0.00 | 0.00 | 79 | 1014.4 |
| 20260507082150 | 50 | 140 | 6.0 | 6.0 | 0.00 | 0.00 | 0.00 | 79 | 1014.7 |
| 20260507081644 | 50 | 187 | 3.0 | 4.0 | 0.00 | 0.00 | 0.00 | 80 | 1014.3 |
| 20260507081135 | 50 | 132 | 7.0 | 8.0 | 0.00 | 0.00 | 0.00 | 80 | 1014.6 |
| 20260507080628 | 50 | 129 | 4.0 | 6.0 | 0.00 | 0.00 | 0.00 | 79 | 1014.6 |
| 20260507080120 | 51 | 156 | 5.0 | 6.0 | 0.00 | 0.00 | 0.00 | 76 | 1014.6 |
| 20260507075613 | 51 | 132 | 2.0 | 6.0 | 0.00 | 0.00 | 0.00 | 78 | 1014.7 |
| 20260507075105 | 51 | 209 | 6.0 | 7.0 | 0.00 | 0.00 | 0.00 | 74 | 1014.8 |
| 20260507074557 | 51 | 252 | 4.0 | 8.0 | 0.00 | 0.00 | 0.00 | 72 | 1014.6 |
| 20260507074050 | 49 | 222 | 4.0 | 8.0 | 0.00 | 0.00 | 0.00 | 77 | 1014.3 |
| 20260507073542 | 49 | 216 | 4.0 | 4.0 | 0.00 | 0.00 | 0.00 | 78 | 1014.1 |
| 20260507073035 | 48 | 162 | 4.0 | 7.0 | 0.00 | 0.00 | 0.00 | 80 | 1014.4 |
| 20260507072527 | 48 | 124 | 2.0 | 5.0 | 0.00 | 0.00 | 0.00 | 83 | 1014.5 |
| 20260507072020 | 48 | 151 | 3.0 | 6.0 | 0.00 | 0.00 | 0.00 | 83 | 1014.5 |
| 20260507071512 | 48 | 196 | 5.0 | 9.0 | 0.00 | 0.00 | 0.00 | 81 | 1014.2 |
| 20260507071005 | 48 | 145 | 3.0 | 7.0 | 0.00 | 0.00 | 0.00 | 83 | 1014.2 |
| 20260507070457 | 48 | 139 | 4.0 | 5.0 | 0.00 | 0.00 | 0.00 | 83 | 1014.5 |
| 20260507065950 | 47 | 150 | 5.0 | 6.0 | 0.00 | 0.00 | 0.00 | 83 | 1014.4 |
| 20260507065443 | 48 | 206 | 3.0 | 6.0 | 0.00 | 0.00 | 0.00 | 81 | 1014.5 |
| 20260507064936 | 47 | 209 | 7.0 | 8.0 | 0.00 | 0.00 | 0.00 | 80 | 1014.4 |
| 20260507064428 | 47 | 284 | 0.0 | 5.0 | 0.00 | 0.00 | 0.00 | 80 | 1014.7 |
| 20260507063920 | 47 | 355 | 3.0 | 3.0 | 0.00 | 0.00 | 0.00 | 82 | 1014.5 |
| 20260507063413 | 47 | 73 | 1.0 | 4.0 | 0.00 | 0.00 | 0.00 | 82 | 1014.4 |
| 20260507062906 | 47 | 309 | 0.0 | 4.0 | 0.00 | 0.00 | 0.00 | 83 | 1014.3 |
| 20260507062359 | 46 | 49 | 1.0 | 3.0 | 0.00 | 0.00 | 0.00 | 83 | 1014.1 |
| 20260507061851 | 46 | 177 | 0.0 | 3.0 | 0.00 | 0.00 | 0.00 | 84 | 1014.5 |
| 20260507061343 | 46 | 262 | 2.0 | 4.0 | 0.00 | 0.00 | 0.00 | 86 | 1013.7 |
| 20260507060835 | 45 | 345 | 1.0 | 3.0 | 0.00 | 0.00 | 0.00 | 86 | 1014.3 |
| 20260507060328 | 45 | 32 | 2.0 | 2.0 | 0.00 | 0.00 | 0.00 | 85 | 1014.3 |
| 20260507055820 | 45 | 17 | 0.0 | 4.0 | 0.00 | 0.00 | 0.00 | 86 | 1013.9 |
| 20260507055313 | 45 | 201 | 0.0 | 4.0 | 0.00 | 0.00 | 0.00 | 88 | 1014.0 |
| 20260507054806 | 45 | 33 | 2.0 | 4.0 | 0.00 | 0.00 | 0.00 | 87 | 1013.9 |
| 20260507054258 | 44 | 359 | 4.0 | 4.0 | 0.00 | 0.00 | 0.00 | 88 | 1013.9 |
| 20260507053751 | 44 | 0 | 2.0 | 4.0 | 0.00 | 0.00 | 0.00 | 88 | 1014.0 |
| 20260507053244 | 44 | 295 | 3.0 | 3.0 | 0.00 | 0.00 | 0.00 | 88 | 1013.8 |
| 20260507052737 | 44 | 57 | 2.0 | 6.0 | 0.00 | 0.00 | 0.00 | 87 | 1013.9 |
| 20260507052229 | 44 | 131 | 0.0 | 4.0 | 0.00 | 0.00 | 0.00 | 88 | 1014.1 |
| 20260507051722 | 44 | 88 | 3.0 | 4.0 | 0.00 | 0.00 | 0.00 | 87 | 1013.5 |
| 20260507051214 | 44 | 320 | 2.0 | 5.0 | 0.00 | 0.00 | 0.00 | 87 | 1013.8 |
| 20260507050707 | 44 | 93 | 0.0 | 5.0 | 0.00 | 0.00 | 0.00 | 86 | 1013.9 |
| 20260507050200 | 44 | 49 | 4.0 | 5.0 | 0.00 | 0.00 | 0.00 | 87 | 1013.7 |
| 20260507045652 | 44 | 357 | 3.0 | 5.0 | 0.00 | 0.00 | 0.00 | 87 | 1013.6 |
| 20260507044637 | 44 | 15 | 3.0 | 5.0 | 0.00 | 0.00 | 0.00 | 87 | 1013.5 |
| 20260507044130 | 44 | 75 | 4.0 | 5.0 | 0.00 | 0.00 | 0.00 | 87 | 1013.7 |
| 20260507043623 | 44 | 350 | 1.0 | 7.0 | 0.00 | 0.00 | 0.00 | 88 | 1013.7 |
| 20260507043115 | 44 | 63 | 2.0 | 3.0 | 0.00 | 0.00 | 0.00 | 86 | 1013.5 |
| 20260507042608 | 44 | 359 | 3.0 | 4.0 | 0.00 | 0.00 | 0.00 | 86 | 1014.0 |
| 20260507042100 | 44 | 166 | 1.0 | 2.0 | 0.00 | 0.00 | 0.00 | 86 | 1013.5 |
| 20260507041553 | 44 | 7 | 3.0 | 4.0 | 0.00 | 0.00 | 0.00 | 86 | 1013.5 |
| 20260507041045 | 44 | 4 | 2.0 | 3.0 | 0.00 | 0.00 | 0.00 | 86 | 1013.6 |
| 20260507040538 | 44 | 355 | 1.0 | 3.0 | 0.00 | 0.00 | 0.00 | 86 | 1013.1 |
| 20260507040030 | 44 | 42 | 3.0 | 3.0 | 0.00 | 0.00 | 0.00 | 86 | 1013.5 |
| 20260507035522 | 44 | 351 | 2.0 | 2.0 | 0.00 | 0.00 | 0.00 | 86 | 1013.2 |
| 20260507035015 | 44 | 47 | 4.0 | 4.0 | 0.00 | 0.00 | 0.00 | 86 | 1013.4 |
| 20260507034508 | 44 | 40 | 0.0 | 1.0 | 0.00 | 0.00 | 0.00 | 85 | 1013.3 |
| 20260507034001 | 44 | 17 | 2.0 | 2.0 | 0.00 | 0.00 | 0.00 | 86 | 1013.5 |
| 20260507033453 | 44 | 85 | 1.0 | 2.0 | 0.00 | 0.00 | 0.00 | 86 | 1013.3 |
| 20260507032946 | 44 | 269 | 0.0 | 3.0 | 0.00 | 0.00 | 0.00 | 85 | 1013.4 |
| 20260507032439 | 44 | 5 | 0.0 | 3.0 | 0.00 | 0.00 | 0.00 | 85 | 1013.2 |
| 20260507031931 | 44 | 15 | 1.0 | 3.0 | 0.00 | 0.00 | 0.00 | 84 | 1013.3 |
| 20260507031426 | 44 | 348 | 0.0 | 3.0 | 0.00 | 0.00 | 0.00 | 86 | 1013.1 |
| 20260507030917 | 44 | 110 | 2.0 | 2.0 | 0.00 | 0.00 | 0.00 | 85 | 1012.9 |
| 20260507030409 | 44 | 58 | 2.0 | 3.0 | 0.00 | 0.00 | 0.00 | 85 | 1013.2 |
| 20260507025902 | 44 | 11 | 2.0 | 3.0 | 0.00 | 0.00 | 0.00 | 83 | 1013.0 |
| 20260507025354 | 44 | 39 | 2.0 | 3.0 | 0.00 | 0.00 | 0.00 | 83 | 1013.6 |
| 20260507024847 | 44 | 81 | 3.0 | 3.0 | 0.00 | 0.00 | 0.00 | 83 | 1013.2 |
| 20260507024339 | 44 | 84 | 0.0 | 2.0 | 0.00 | 0.00 | 0.00 | 84 | 1013.1 |
| 20260507023832 | 44 | 134 | 2.0 | 3.0 | 0.00 | 0.00 | 0.00 | 83 | 1013.4 |
| 20260507022817 | 44 | 8 | 2.0 | 4.0 | 0.00 | 0.00 | 0.00 | 83 | 1013.0 |
| 20260507022310 | 44 | 15 | 2.0 | 4.0 | 0.00 | 0.00 | 0.00 | 84 | 1013.2 |
| 20260507021803 | 44 | 108 | 2.0 | 5.0 | 0.00 | 0.00 | 0.00 | 85 | 1013.1 |
| 20260507021255 | 44 | 79 | 3.0 | 4.0 | 0.00 | 0.00 | 0.00 | 85 | 1012.9 |
| 20260507020748 | 44 | 309 | 1.0 | 3.0 | 0.00 | 0.00 | 0.00 | 84 | 1012.9 |
| 20260507020241 | 44 | 154 | 0.0 | 6.0 | 0.00 | 0.00 | 0.00 | 84 | 1013.0 |
| 20260507015733 | 44 | 307 | 1.0 | 4.0 | 0.00 | 0.00 | 0.00 | 85 | 1012.8 |
| 20260507015226 | 44 | 45 | 0.0 | 3.0 | 0.00 | 0.00 | 0.00 | 85 | 1013.0 |
| 20260507014719 | 44 | 357 | 2.0 | 3.0 | 0.00 | 0.00 | 0.00 | 84 | 1013.3 |
| 20260507014211 | 44 | 169 | 1.0 | 3.0 | 0.00 | 0.00 | 0.00 | 84 | 1012.8 |
| 20260507013704 | 44 | 81 | 2.0 | 3.0 | 0.00 | 0.00 | 0.00 | 83 | 1012.8 |
| 20260507013156 | 44 | 345 | 3.0 | 3.0 | 0.00 | 0.00 | 0.00 | 84 | 1012.8 |
| 20260507012649 | 44 | 37 | 3.0 | 4.0 | 0.00 | 0.00 | 0.00 | 84 | 1012.9 |
| 20260507012141 | 44 | 45 | 2.0 | 3.0 | 0.00 | 0.00 | 0.00 | 85 | 1012.6 |
| 20260507011634 | 44 | 342 | 0.0 | 4.0 | 0.00 | 0.00 | 0.00 | 83 | 1012.4 |
| 20260507011126 | 44 | 12 | 3.0 | 4.0 | 0.00 | 0.00 | 0.00 | 82 | 1012.9 |
| 20260507010618 | 44 | 277 | 1.0 | 3.0 | 0.00 | 0.00 | 0.00 | 81 | 1012.8 |
| 20260507010111 | 44 | 330 | 0.0 | 6.0 | 0.00 | 0.00 | 0.00 | 81 | 1012.7 |
| 20260507005603 | 44 | 63 | 2.0 | 3.0 | 0.00 | 0.00 | 0.00 | 83 | 1012.4 |
| 20260507005056 | 44 | 43 | 2.0 | 4.0 | 0.00 | 0.00 | 0.00 | 83 | 1013.1 |
| 20260507004548 | 44 | 9 | 3.0 | 5.0 | 0.00 | 0.00 | 0.00 | 83 | 1012.8 |
| 20260507004041 | 44 | 142 | 2.0 | 4.0 | 0.00 | 0.00 | 0.00 | 83 | 1012.8 |
| 20260507003533 | 44 | 34 | 1.0 | 3.0 | 0.00 | 0.00 | 0.00 | 83 | 1013.1 |
| 20260507003026 | 44 | 318 | 2.0 | 5.0 | 0.00 | 0.00 | 0.00 | 82 | 1012.9 |
| 20260507002518 | 44 | 185 | 0.0 | 4.0 | 0.00 | 0.00 | 0.00 | 83 | 1012.8 |
| 20260507002011 | 44 | 274 | 1.0 | 7.0 | 0.00 | 0.00 | 0.00 | 82 | 1012.9 |
| 20260507001504 | 44 | 111 | 4.0 | 5.0 | 0.00 | 0.00 | 0.00 | 84 | 1012.9 |
| 20260507000957 | 44 | 92 | 2.0 | 2.0 | 0.00 | 0.00 | 0.00 | 84 | 1012.9 |
| 20260507000450 | 44 | 74 | 2.0 | 5.0 | 0.00 | 0.00 | 0.00 | 84 | 1012.8 |
| 20260506235942 | 44 | 250 | 3.0 | 4.0 | 0.00 | 0.00 | 0.00 | 84 | 1013.4 |
| 20260506235434 | 44 | 213 | 2.0 | 2.0 | 0.00 | 0.00 | 0.00 | 85 | 1012.8 |
| 20260506234927 | 44 | 84 | 2.0 | 3.0 | 0.00 | 0.00 | 0.00 | 84 | 1012.6 |
| 20260506234419 | 44 | 20 | 0.0 | 4.0 | 0.00 | 0.00 | 0.00 | 85 | 1012.9 |
| 20260506233911 | 44 | 45 | 0.0 | 3.0 | 0.00 | 0.00 | 0.00 | 84 | 1013.2 |
| 20260506233404 | 44 | 130 | 2.0 | 4.0 | 0.00 | 0.00 | 0.00 | 83 | 1012.7 |
| 20260506232856 | 45 | 176 | 3.0 | 7.0 | 0.00 | 0.00 | 0.00 | 81 | 1013.0 |
| 20260506232348 | 44 | 203 | 2.0 | 3.0 | 0.00 | 0.00 | 0.00 | 83 | 1012.2 |
| 20260506231841 | 44 | 124 | 4.0 | 4.0 | 0.00 | 0.00 | 0.00 | 83 | 1012.5 |
| 20260506231333 | 44 | 182 | 2.0 | 5.0 | 0.00 | 0.00 | 0.00 | 82 | 1012.7 |
| 20260506230825 | 45 | 255 | 4.0 | 4.0 | 0.00 | 0.00 | 0.00 | 82 | 1012.5 |
| 20260506230318 | 45 | 95 | 3.0 | 3.0 | 0.00 | 0.00 | 0.00 | 81 | 1012.7 |
| 20260506225811 | 45 | 25 | 2.0 | 3.0 | 0.00 | 0.00 | 0.00 | 82 | 1012.9 |
| 20260506225305 | 45 | 45 | 3.0 | 4.0 | 0.00 | 0.00 | 0.00 | 81 | 1012.2 |
| 20260506224756 | 44 | 348 | 2.0 | 7.0 | 0.00 | 0.00 | 0.00 | 82 | 1012.2 |
| 20260506224248 | 44 | 292 | 4.0 | 4.0 | 0.00 | 0.00 | 0.00 | 84 | 1012.7 |
| 20260506223741 | 44 | 30 | 2.0 | 3.0 | 0.00 | 0.00 | 0.00 | 85 | 1012.5 |
| 20260506223234 | 44 | 317 | 2.0 | 6.0 | 0.00 | 0.00 | 0.00 | 84 | 1012.6 |
| 20260506222726 | 44 | 272 | 4.0 | 9.0 | 0.00 | 0.00 | 0.00 | 84 | 1012.4 |
| 20260506222219 | 44 | 330 | 4.0 | 9.0 | 0.00 | 0.00 | 0.00 | 86 | 1012.7 |
| 20260506221711 | 44 | 30 | 2.0 | 4.0 | 0.00 | 0.00 | 0.00 | 87 | 1012.3 |
| 20260506221203 | 44 | 164 | 0.0 | 6.0 | 0.00 | 0.00 | 0.00 | 87 | 1012.6 |
| 20260506220656 | 44 | 249 | 2.0 | 5.0 | 0.00 | 0.00 | 0.00 | 87 | 1012.9 |
| 20260506220148 | 44 | 64 | 0.0 | 7.0 | 0.00 | 0.00 | 0.00 | 86 | 1012.7 |
| 20260506215641 | 43 | 325 | 2.0 | 4.0 | 0.00 | 0.35 | 0.35 | 88 | 1012.6 |
| 20260506215133 | 43 | 234 | 2.0 | 6.0 | 0.00 | 0.35 | 0.35 | 86 | 1012.5 |
| 20260506214626 | 43 | 55 | 0.0 | 3.0 | 0.00 | 0.35 | 0.35 | 87 | 1012.5 |
| 20260506214119 | 43 | 47 | 1.0 | 4.0 | 0.00 | 0.35 | 0.35 | 87 | 1012.7 |
| 20260506213611 | 43 | 139 | 2.0 | 3.0 | 0.00 | 0.35 | 0.35 | 87 | 1012.3 |
| 20260506213103 | 43 | 47 | 3.0 | 6.0 | 0.00 | 0.35 | 0.35 | 85 | 1012.8 |
| 20260506212555 | 43 | 41 | 3.0 | 4.0 | 0.00 | 0.35 | 0.35 | 86 | 1012.3 |
| 20260506212047 | 43 | 66 | 2.0 | 3.0 | 0.00 | 0.35 | 0.35 | 86 | 1012.7 |
| 20260506211539 | 44 | 115 | 1.0 | 5.0 | 0.00 | 0.35 | 0.35 | 85 | 1012.5 |
| 20260506211031 | 44 | 325 | 1.0 | 3.0 | 0.00 | 0.35 | 0.35 | 84 | 1012.6 |
| 20260506210523 | 44 | 0 | 2.0 | 2.0 | 0.01 | 0.35 | 0.35 | 84 | 1012.3 |
| 20260506210015 | 44 | 317 | 3.0 | 4.0 | 0.01 | 0.35 | 0.35 | 82 | 1012.5 |
| 20260506205508 | 44 | 353 | 4.0 | 5.0 | 0.01 | 0.35 | 0.35 | 82 | 1012.2 |
| 20260506205000 | 44 | 323 | 3.0 | 7.0 | 0.01 | 0.35 | 0.35 | 82 | 1011.8 |
| 20260506204452 | 44 | 316 | 6.0 | 6.0 | 0.01 | 0.35 | 0.35 | 83 | 1012.0 |
| 20260506203945 | 44 | 272 | 2.0 | 6.0 | 0.01 | 0.35 | 0.35 | 84 | 1012.1 |
| 20260506203437 | 43 | 356 | 2.0 | 4.0 | 0.01 | 0.35 | 0.35 | 85 | 1012.5 |
| 20260506202929 | 43 | 234 | 1.0 | 4.0 | 0.01 | 0.35 | 0.35 | 87 | 1012.3 |
| 20260506201914 | 43 | 3 | 1.0 | 4.0 | 0.01 | 0.35 | 0.35 | 88 | 1012.8 |
| 20260506201406 | 43 | 52 | 4.0 | 4.0 | 0.00 | 0.34 | 0.34 | 87 | 1012.5 |
| 20260506200859 | 43 | 186 | 2.0 | 4.0 | 0.00 | 0.34 | 0.34 | 89 | 1012.4 |
| 20260506200351 | 44 | 1 | 1.0 | 6.0 | 0.00 | 0.34 | 0.34 | 88 | 1012.6 |
| 20260506195843 | 44 | 280 | 1.0 | 5.0 | 0.00 | 0.34 | 0.34 | 86 | 1012.0 |
| 20260506195336 | 44 | 355 | 3.0 | 5.0 | 0.00 | 0.34 | 0.34 | 88 | 1012.2 |
| 20260506194828 | 44 | 283 | 3.0 | 4.0 | 0.00 | 0.34 | 0.34 | 87 | 1012.1 |
| 20260506194321 | 44 | 321 | 3.0 | 4.0 | 0.00 | 0.34 | 0.34 | 88 | 1012.5 |
| 20260506193813 | 44 | 280 | 0.0 | 3.0 | 0.00 | 0.34 | 0.34 | 87 | 1012.1 |
| 20260506192758 | 45 | 355 | 2.0 | 2.0 | 0.00 | 0.34 | 0.34 | 85 | 1012.0 |